Wind_Speed
14 14 14 14 14 14 14 12 11 8 8 7 7 6 3 3 2 2 2 2 3 4 6 6 6 6 6 6 6 7 7 7 7 7 7 8 7 8 8 9 9 9 9
15 14 14 14 13 13 13 11 10 7 7 7 7 6 5 3 2 2 3 3 3 5 6 7 7 7 7 7 7 7 7 7 8 8 8 8 9 9 10 10 10 9 10
16 14 14 14 13 13 12 11 9 7 6 6 6 6 6 5 4 3 4 4 4 5 6 7 7 8 8 8 8 8 8 8 9 9 9 10 11 11 11 11 11 11 10
16 15 14 14 12 12 11 10 9 8 6 5 6 6 6 5 5 4 4 4 4 5 6 7 8 8 9 9 10 9 9 9 10 10 11 11 11 11 12 13 12 12 12
16 15 13 12 12 11 10 10 10 8 6 6 6 6 5 5 5 5 5 5 5 6 7 8 9 9 10 11 11 10 11 11 11 12 12 12 13 13 13 14 14 14 14
16 15 13 11 11 11 10 10 9 9 7 6 6 6 5 5 5 5 5 6 6 7 8 9 10 11 11 12 12 12 12 12 13 13 13 14 14 15 15 15 16 16 16
15 15 13 12 12 11 10 9 9 8 8 6 6 6 6 5 5 6 6 7 7 7 8 9 10 11 12 13 13 13 14 14 14 14 15 16 16 16 16 16 16 16 17
14 14 13 12 12 11 11 9 8 8 7 6 6 6 6 6 6 7 7 7 7 8 8 9 9 10 11 12 13 14 15 15 16 16 16 17 17 17 16 17 17 17 17
14 13 13 12 11 11 11 10 9 8 7 6 6 6 6 7 7 7 7 7 8 8 8 8 9 10 10 12 14 15 15 16 17 17 17 17 17 17 17 17 18 18 18
14 14 13 13 12 11 10 10 9 8 7 7 6 6 7 8 8 8 8 8 8 8 8 9 9 10 12 12 13 14 13 14 14 15 16 16 16 16 17 17 17 17 18
14 14 14 13 12 11 10 10 9 9 8 7 7 7 8 8 9 9 9 8 8 8 8 8 9 10 11 11 12 12 12 12 13 14 15 16 16 16 16 17 17 18 19
13 13 13 12 12 11 10 9 9 9 9 9 8 8 9 9 10 10 9 9 9 8 8 8 9 10 11 12 12 12 12 13 14 14 14 15 16 16 17 17 18 18 20
12 12 12 11 11 11 11 10 10 10 9 9 9 9 10 11 11 10 9 9 9 9 8 9 10 11 11 11 12 12 13 13 14 14 15 15 16 16 17 17 18 19 20
13 13 12 12 11 11 11 11 11 10 10 9 9 10 11 11 11 11 10 10 10 10 10 10 11 11 12 12 12 13 13 13 14 14 14 15 16 17 18 18 19 19 20
15 14 13 12 12 12 12 12 11 11 11 10 10 10 11 11 11 10 10 11 11 11 11 11 12 12 12 12 12 13 13 14 14 14 15 15 16 17 18 19 19 20 21
16 15 15 14 13 13 13 12 12 11 11 11 11 11 11 11 11 11 12 12 12 12 12 12 12 13 13 13 13 13 14 14 14 14 14 15 16 17 18 20 20 21 22
18 17 17 16 15 14 14 14 14 13 13 13 13 13 13 13 13 13 13 13 13 13 13 13 14 14 14 14 14 15 15 15 15 15 15 16 17 17 19 20 21 22 22
21 20 19 18 17 16 15 16 16 15 14 14 14 15 15 15 15 15 15 15 15 15 15 15 15 15 15 15 16 16 17 17 17 17 17 18 18 19 20 21 21 21 22
22 22 21 19 19 18 17 17 17 16 16 16 15 16 16 16 17 17 17 16 16 16 16 17 16 16 16 16 16 16 17 17 18 19 19 19 20 21 21 21 21 22 23
25 24 23 21 21 20 19 18 18 19 19 18 18 18 18 18 19 19 19 18 18 18 18 18 18 17 17 17 17 17 17 18 19 20 21 21 21 22 22 22 23 23 24
27 25 24 23 22 21 21 20 20 21 21 21 21 21 21 21 21 21 20 20 20 20 20 20 19 20 19 19 19 19 19 20 20 21 21 22 22 23 23 23 24 24 25
29 27 25 25 25 24 23 22 22 23 23 23 23 23 23 23 23 23 22 22 22 22 22 22 21 21 21 21 21 22 22 22 22 23 23 23 24 24 24 24 25 25 26
30 29 27 27 28 27 26 25 25 26 26 26 26 26 25 25 25 25 25 25 25 25 25 24 24 24 23 23 23 23 24 24 24 24 24 24 25 25 25 26 26 26 27
32 30 29 29 30 30 29 28 29 29 29 28 28 27 27 27 27 27 27 27 27 27 27 26 25 25 25 25 25 25 25 26 26 26 26 26 26 26 27 27 27 27 28
32 31 32 33 33 32 31 31 31 31 31 30 30 29 29 28 28 28 28 29 28 28 28 28 27 27 28 27 27 27 27 27 27 27 27 27 28 28 28 28 28 28 28
36 35 35 36 35 34 34 34 34 34 34 32 31 31 31 30 30 30 30 30 29 30 30 30 30 30 30 30 29 29 29 29 29 28 28 29 29 29 29 29 29 29 30
Wind_Direction
5 4 360 358 0 2 0 360 0 7 12 16 10 9 16 13 355 321 282 258 234 228 222 225 232 241 249 254 253 254 258 258 258 260 263 262 266 269 272 270 266 268 271
2 3 360 358 358 358 358 358 354 358 0 6 5 4 8 4 349 315 284 263 237 231 231 236 242 249 254 254 251 251 256 257 259 261 264 264 262 264 273 274 268 270 274
357 358 357 359 359 358 358 358 0 356 349 354 359 350 351 354 342 317 285 261 245 241 240 243 244 248 253 253 251 254 255 256 259 262 264 263 262 263 268 272 269 269 274
349 351 353 352 356 360 0 2 4 358 350 347 347 338 334 333 329 318 298 275 264 255 250 249 251 256 255 254 257 259 262 262 266 267 266 266 266 267 265 270 272 273 271
346 346 349 351 355 358 1 3 3 1 357 347 341 333 322 321 322 316 302 283 270 267 264 261 256 255 255 256 257 262 265 266 268 271 270 267 267 268 266 268 272 273 272
348 345 350 353 356 357 356 357 359 359 355 353 350 341 329 322 319 321 308 289 279 273 266 263 258 257 257 258 260 263 267 268 268 271 272 272 270 269 269 268 269 270 273
349 349 353 357 357 354 352 352 352 352 351 349 350 348 340 331 323 318 312 299 290 283 274 269 266 261 262 262 261 263 267 268 269 271 272 273 272 272 270 270 270 271 274
347 350 352 352 354 354 353 352 352 352 353 350 349 348 345 340 334 326 320 310 297 291 279 273 269 269 268 267 263 263 268 269 269 271 274 273 272 274 273 272 272 275 275
349 350 352 351 349 349 352 352 351 352 352 352 350 349 345 343 341 336 330 322 307 298 291 283 274 272 275 277 275 270 270 273 273 273 274 273 274 275 273 273 273 275 274
345 347 348 349 348 347 348 350 352 353 351 352 348 346 343 341 340 337 334 330 321 308 297 287 283 281 282 285 280 278 276 277 277 277 276 274 275 276 276 275 275 277 277
340 342 344 344 347 348 349 350 353 355 356 353 349 350 346 341 337 333 330 331 327 317 302 295 290 290 292 287 285 281 278 278 280 279 276 274 276 278 280 278 277 277 277
334 336 338 342 346 349 349 351 354 355 353 350 349 348 343 339 336 332 330 331 329 325 314 309 300 297 297 293 287 286 282 280 281 281 281 280 279 279 282 280 278 278 281
325 330 332 336 342 346 348 348 348 349 349 348 345 344 340 335 335 332 327 327 323 320 316 310 306 303 301 298 293 290 287 284 282 282 284 283 281 280 283 281 281 281 282
318 321 326 329 334 339 340 342 341 340 341 343 344 342 339 336 334 328 322 320 319 316 315 311 308 306 303 300 298 296 293 287 285 285 286 283 283 284 285 286 285 284 285
312 317 321 323 324 328 331 335 335 333 334 335 336 336 335 335 334 329 322 318 318 318 315 311 309 305 302 299 297 298 298 293 289 287 286 285 285 287 288 288 287 286 285
301 308 313 315 316 318 322 325 330 329 329 330 330 330 328 329 329 330 325 320 317 315 315 314 311 306 302 299 296 296 298 298 294 292 289 286 285 287 287 288 288 288 286
301 304 306 307 306 308 311 313 317 319 321 322 323 324 325 324 325 325 323 319 318 317 314 313 310 307 302 299 295 295 295 295 295 292 291 291 291 291 292 289 288 288 287
294 298 299 300 299 300 303 306 310 311 311 314 318 321 323 324 323 324 321 319 316 313 312 312 312 307 302 298 296 294 293 293 293 291 291 293 293 294 294 293 292 291 291
288 290 292 292 293 294 296 299 305 308 307 309 313 315 318 320 321 322 320 318 316 314 314 312 310 309 306 303 302 298 296 296 293 292 292 291 292 294 295 293 293 293 293
281 284 286 286 287 288 289 294 300 305 307 307 310 311 314 315 317 318 317 315 315 314 314 312 310 309 307 304 302 301 300 299 297 294 293 292 293 294 295 294 293 294 294
275 277 281 281 283 284 286 290 294 296 300 303 306 307 309 311 312 312 312 312 311 312 312 311 309 309 308 304 302 300 300 300 298 297 295 293 293 293 294 294 294 294 294
270 272 274 275 278 280 282 285 288 291 294 297 299 301 304 307 308 307 307 308 308 308 308 307 306 306 306 305 303 300 298 297 296 295 295 294 294 294 294 294 294 294 294
268 269 270 270 274 276 279 281 283 285 288 291 293 296 299 302 303 303 303 303 304 305 306 305 303 303 303 303 303 300 298 297 296 295 295 295 294 294 294 294 294 294 294
265 267 268 270 272 273 275 278 280 282 284 286 288 291 294 296 298 299 301 301 301 302 303 303 302 300 301 300 300 300 299 298 297 295 294 294 293 293 294 294 295 294 294
263 264 267 268 268 270 272 275 277 279 281 283 285 287 290 292 294 295 298 298 298 298 300 300 300 299 298 298 298 297 297 296 296 295 293 293 292 292 293 293 294 295 294
262 263 265 267 268 269 271 273 275 278 280 281 283 286 289 291 292 293 295 296 295 296 297 296 296 296 296 296 296 296 296 295 294 292 291 291 291 292 293 294 294 294 293
Height
5922 5920 5918 5915 5913 5911 5909 5906 5904 5902 5901 5901 5900 5899 5899 5898 5898 5897 5897 5898 5898 5898 5899 5900 5900 5901 5901 5901 5902 5902 5902 5902 5903 5903 5902 5902 5902 5902 5901 5900 5900 5900 5899
5922 5920 5918 5915 5913 5910 5908 5906 5904 5902 5901 5901 5900 5899 5898 5898 5897 5897 5896 5896 5897 5897 5898 5898 5899 5899 5899 5900 5900 5900 5900 5901 5901 5901 5901 5900 5901 5900 5899 5898 5898 5897 5897
5922 5920 5917 5915 5912 5910 5908 5906 5904 5902 5901 5900 5899 5898 5898 5897 5897 5896 5896 5895 5895 5896 5896 5897 5897 5897 5898 5898 5898 5898 5898 5898 5898 5898 5898 5898 5898 5897 5897 5896 5896 5895 5895
5922 5919 5917 5914 5911 5909 5907 5906 5904 5902 5901 5899 5898 5897 5897 5896 5896 5895 5895 5894 5894 5894 5894 5895 5895 5895 5895 5895 5896 5896 5896 5896 5896 5895 5895 5895 5895 5895 5895 5894 5893 5893 5892
5921 5919 5916 5913 5911 5909 5907 5905 5903 5901 5900 5899 5898 5896 5896 5895 5895 5894 5893 5893 5893 5892 5892 5892 5892 5892 5893 5893 5893 5893 5893 5893 5893 5892 5892 5892 5892 5891 5891 5891 5890 5890 5889
5920 5917 5914 5912 5910 5908 5906 5904 5903 5901 5899 5898 5897 5895 5894 5894 5893 5892 5892 5891 5891 5890 5890 5890 5889 5889 5890 5890 5890 5890 5890 5890 5890 5889 5889 5888 5888 5888 5887 5887 5886 5886 5885
5919 5916 5914 5911 5909 5907 5905 5903 5902 5900 5898 5897 5896 5894 5893 5892 5892 5891 5890 5889 5889 5888 5888 5887 5886 5886 5886 5887 5886 5887 5887 5886 5886 5886 5885 5885 5884 5884 5883 5883 5882 5881 5881
5918 5915 5913 5911 5909 5907 5905 5903 5901 5899 5897 5896 5895 5893 5892 5891 5890 5889 5888 5887 5887 5886 5885 5884 5884 5883 5883 5883 5883 5883 5883 5883 5882 5881 5881 5880 5880 5879 5879 5879 5878 5877 5876
5917 5915 5912 5910 5908 5906 5904 5902 5900 5898 5897 5895 5894 5892 5891 5890 5889 5888 5887 5885 5884 5883 5882 5882 5881 5881 5880 5880 5879 5879 5879 5879 5878 5877 5877 5876 5875 5874 5874 5874 5873 5873 5872
5916 5913 5911 5909 5907 5905 5903 5901 5899 5897 5895 5894 5893 5891 5890 5889 5887 5886 5885 5884 5882 5881 5880 5880 5879 5878 5877 5876 5876 5875 5875 5874 5873 5873 5872 5872 5871 5870 5869 5868 5868 5867 5867
5914 5912 5910 5908 5905 5903 5901 5900 5898 5896 5894 5893 5891 5890 5889 5887 5886 5884 5883 5881 5880 5879 5878 5877 5876 5875 5874 5873 5872 5872 5871 5870 5869 5869 5868 5867 5866 5866 5865 5864 5863 5862 5861
5912 5910 5909 5907 5904 5902 5900 5898 5897 5895 5893 5892 5890 5888 5887 5886 5884 5882 5881 5879 5878 5877 5876 5874 5873 5872 5871 5870 5869 5868 5867 5866 5865 5864 5864 5863 5862 5861 5860 5859 5858 5857 5856
5910 5909 5907 5905 5903 5901 5899 5897 5895 5894 5892 5890 5889 5887 5885 5884 5882 5880 5879 5877 5876 5875 5873 5872 5871 5869 5868 5867 5865 5864 5863 5862 5861 5860 5859 5858 5857 5856 5856 5855 5853 5852 5851
5907 5906 5905 5904 5902 5900 5898 5896 5894 5892 5891 5889 5887 5885 5884 5882 5880 5878 5876 5875 5874 5872 5871 5869 5868 5867 5865 5863 5862 5861 5859 5858 5857 5856 5855 5854 5853 5852 5851 5850 5848 5847 5845
5905 5904 5902 5901 5900 5898 5896 5894 5892 5891 5889 5887 5885 5884 5882 5880 5878 5876 5874 5872 5871 5870 5868 5866 5865 5863 5862 5860 5859 5857 5856 5854 5853 5852 5851 5850 5848 5847 5846 5845 5843 5842 5840
5901 5900 5900 5898 5897 5896 5894 5893 5891 5889 5887 5885 5883 5881 5880 5878 5876 5874 5872 5870 5869 5867 5865 5863 5861 5860 5858 5857 5855 5854 5852 5851 5849 5848 5846 5845 5844 5842 5841 5839 5838 5836 5834
5898 5897 5896 5895 5894 5893 5891 5890 5888 5887 5885 5883 5881 5879 5877 5875 5873 5871 5869 5868 5866 5864 5862 5860 5858 5856 5854 5853 5851 5849 5848 5846 5845 5843 5842 5840 5839 5837 5836 5834 5832 5830 5828
5894 5893 5892 5891 5890 5889 5888 5887 5885 5883 5882 5880 5878 5876 5874 5872 5870 5868 5866 5864 5862 5861 5858 5856 5854 5852 5850 5848 5847 5845 5843 5842 5840 5839 5837 5835 5834 5832 5830 5828 5826 5824 5822
5889 5889 5888 5887 5886 5885 5884 5883 5881 5879 5878 5877 5875 5873 5871 5869 5867 5865 5863 5861 5859 5857 5855 5852 5850 5848 5846 5844 5842 5840 5839 5837 5835 5833 5832 5830 5828 5826 5824 5822 5820 5818 5816
5884 5884 5883 5882 5881 5880 5880 5879 5877 5876 5874 5873 5871 5869 5867 5865 5863 5861 5859 5857 5854 5852 5850 5848 5846 5844 5841 5839 5837 5836 5834 5832 5830 5828 5826 5824 5822 5820 5818 5816 5814 5812 5809
5878 5878 5877 5877 5876 5875 5874 5874 5873 5871 5870 5868 5866 5865 5863 5861 5859 5857 5854 5852 5850 5848 5845 5843 5841 5839 5837 5834 5832 5830 5828 5826 5824 5822 5820 5818 5816 5814 5812 5809 5807 5805 5802
5871 5871 5871 5870 5870 5869 5868 5868 5867 5866 5864 5863 5861 5859 5858 5856 5854 5852 5849 5847 5845 5842 5840 5838 5836 5833 5831 5829 5827 5824 5822 5820 5818 5816 5814 5811 5809 5807 5805 5802 5800 5797 5795
5863 5863 5863 5863 5863 5862 5861 5861 5861 5860 5858 5857 5855 5853 5852 5850 5848 5846 5844 5841 5839 5836 5834 5832 5829 5827 5825 5823 5821 5818 5816 5813 5811 5809 5806 5804 5802 5800 5797 5795 5792 5790 5787
5854 5855 5855 5855 5855 5854 5854 5854 5853 5852 5851 5849 5848 5846 5845 5843 5841 5839 5837 5835 5832 5830 5827 5825 5823 5820 5818 5816 5814 5811 5809 5806 5804 5801 5799 5797 5794 5792 5789 5787 5784 5781 5779
5844 5845 5846 5846 5846 5846 5846 5845 5845 5844 5843 5841 5840 5839 5837 5836 5834 5832 5830 5828 5825 5823 5821 5818 5816 5813 5811 5809 5806 5804 5801 5799 5796 5794 5791 5789 5787 5784 5781 5779 5776 5773 5770
5836 5837 5837 5837 5836 5836 5836 5837 5836 5835 5834 5833 5832 5830 5829 5827 5826 5824 5822 5819 5817 5815 5813 5810 5808 5806 5803 5801 5798 5796 5793 5791 5788 5786 5783 5781 5778 5776 5773 5770 5768 5765 5762